When you browse on this site, cookies collect data to enhance your experience and personalize the content and advertising you see.
Visit our Privacy Policy to learn more. By continuing to use the site, you agree to this use of cookies and data.

Hourly Weather Sidi Bu-l-Abbas

Today, 28 September, Monday

Time Temperature Precipitation Wind Pressure Humidity
00:00 +17°C° 0 mm 0 mps 720 mmHg 62%
01:00 +17°C° 0 mm 0 mps 719 mmHg 63%
02:00 +16°C° 0 mm 0 mps 719 mmHg 64%
03:00 +16°C° 0 mm 0 mps 718 mmHg 66%
04:00 +16°C° 0 mm 0 mps 719 mmHg 64%
05:00 +18°C° 0 mm 1 mps 719 mmHg 62%
06:00 +16°C° 0 mm 1 mps 719 mmHg 59%
07:00 +19°C° 0 mm 2 mps 720 mmHg 49%
08:00 +21°C° 0 mm 2 mps 720 mmHg 39%
09:00 +25°C° 0 mm 3 mps 721 mmHg 30%
10:00 +26°C° 0 mm 3 mps 721 mmHg 26%
11:00 +28°C° 0 mm 3 mps 721 mmHg 22%
12:00 +29°C° 0 mm 3 mps 721 mmHg 18%
13:00 +30°C° 0 mm 3 mps 721 mmHg 18%
14:00 +31°C° 0 mm 3 mps 720 mmHg 17%
15:00 +33°C° 0 mm 3 mps 720 mmHg 16%
16:00 +30°C° 0 mm 4 mps 720 mmHg 22%
17:00 +28°C° 0 mm 4 mps 720 mmHg 27%
18:00 +26°C° 0 mm 5 mps 719 mmHg 32%
19:00 +25°C° 0 mm 4 mps 720 mmHg 35%
20:00 +24°C° 0 mm 3 mps 720 mmHg 38%
21:00 +24°C° 0 mm 3 mps 720 mmHg 41%
22:00 +23°C° 0 mm 2 mps 720 mmHg 41%
23:00 +23°C° 0 mm 2 mps 720 mmHg 40%

Tomorrow, 29 September, Tuesday

Time Temperature Precipitation Wind Pressure Humidity
00:00 +23°C° 0 mm 2 mps 720 mmHg 39%
01:00 +23°C° 0 mm 2 mps 720 mmHg 39%
02:00 +21°C° 0 mm 2 mps 719 mmHg 38%
03:00 +21°C° 0 mm 2 mps 719 mmHg 38%
04:00 +21°C° 0 mm 2 mps 719 mmHg 39%
05:00 +21°C° 0 mm 1 mps 719 mmHg 40%
06:00 +21°C° 0 mm 1 mps 719 mmHg 41%
07:00 +24°C° 0 mm 1 mps 720 mmHg 35%
08:00 +27°C° 0 mm 2 mps 720 mmHg 30%
09:00 +29°C° 0 mm 2 mps 721 mmHg 25%
10:00 +30°C° 0 mm 2 mps 721 mmHg 23%
11:00 +33°C° 0 mm 3 mps 721 mmHg 22%
12:00 +34°C° 0 mm 4 mps 721 mmHg 20%
13:00 +34°C° 0 mm 4 mps 720 mmHg 22%
14:00 +34°C° 0 mm 4 mps 720 mmHg 23%
15:00 +34°C° 0 mm 4 mps 720 mmHg 24%
16:00 +31°C° 0 mm 3 mps 720 mmHg 30%
17:00 +29°C° 0 mm 3 mps 719 mmHg 35%
18:00 +28°C° 0 mm 2 mps 719 mmHg 40%
19:00 +27°C° 0 mm 2 mps 720 mmHg 44%
20:00 +26°C° 0 mm 1 mps 720 mmHg 48%
21:00 +25°C° 0 mm 1 mps 720 mmHg 53%
22:00 +24°C° 0 mm 1 mps 720 mmHg 54%
23:00 +22°C° 0 mm 0 mps 720 mmHg 56%

Day after tomorrow, 30 September, Wednesday

Time Temperature Precipitation Wind Pressure Humidity
00:00 +21°C° 0 mm 0 mps 719 mmHg 58%
01:00 +23°C° 0 mm 1 mps 719 mmHg 60%
02:00 +23°C° 0 mm 1 mps 719 mmHg 62%
03:00 +22°C° 0 mm 1 mps 719 mmHg 64%
04:00 +22°C° 0 mm 1 mps 719 mmHg 70%
05:00 +21°C° 0 mm 1 mps 719 mmHg 75%
06:00 +20°C° 0 mm 1 mps 719 mmHg 80%
07:00 +22°C° 0 mm 1 mps 719 mmHg 71%
08:00 +24°C° 0 mm 1 mps 719 mmHg 62%
09:00 +26°C° 0 mm 1 mps 720 mmHg 53%
10:00 +27°C° 0 mm 2 mps 720 mmHg 50%
11:00 +28°C° 0 mm 3 mps 720 mmHg 46%
12:00 +29°C° 0 mm 4 mps 720 mmHg 43%
13:00 +29°C° 0 mm 4 mps 719 mmHg 44%
14:00 +29°C° 0 mm 4 mps 719 mmHg 46%
15:00 +29°C° 0 mm 5 mps 719 mmHg 47%
16:00 +28°C° 0 mm 4 mps 719 mmHg 51%
17:00 +26°C° 0 mm 3 mps 719 mmHg 55%
18:00 +25°C° 0 mm 2 mps 719 mmHg 59%
19:00 +25°C° 0 mm 1 mps 719 mmHg 62%
20:00 +24°C° 0 mm 1 mps 719 mmHg 64%
21:00 +24°C° 0 mm 1 mps 719 mmHg 67%
22:00 +23°C° 0 mm 1 mps 719 mmHg 69%
23:00 +23°C° 0 mm 1 mps 719 mmHg 71%

1 October, Thursday

Time Temperature Precipitation Wind Pressure Humidity
00:00 +22°C° 0 mm 1 mps 719 mmHg 73%
01:00 +22°C° 0 mm 1 mps 718 mmHg 74%
02:00 +21°C° 0 mm 1 mps 718 mmHg 76%
03:00 +21°C° 0 mm 1 mps 718 mmHg 78%
04:00 +21°C° 0 mm 1 mps 718 mmHg 77%
05:00 +21°C° 0 mm 1 mps 718 mmHg 75%
06:00 +20°C° 0 mm 2 mps 718 mmHg 74%
07:00 +22°C° 0 mm 3 mps 718 mmHg 63%
08:00 +25°C° 0 mm 4 mps 718 mmHg 52%
09:00 +27°C° 0 mm 5 mps 718 mmHg 41%
10:00 +28°C° 0 mm 6 mps 718 mmHg 37%
11:00 +29°C° 0 mm 7 mps 718 mmHg 33%
12:00 +31°C° 0 mm 8 mps 718 mmHg 29%
13:00 +31°C° 0 mm 8 mps 718 mmHg 28%
14:00 +29°C° 0 mm 7 mps 718 mmHg 28%
15:00 +29°C° 0 mm 7 mps 717 mmHg 27%
16:00 +28°C° 0 mm 6 mps 717 mmHg 30%
17:00 +26°C° 0 mm 5 mps 717 mmHg 32%
18:00 +25°C° 0 mm 3 mps 716 mmHg 34%
19:00 +24°C° 0 mm 3 mps 717 mmHg 34%
20:00 +24°C° 0 mm 3 mps 717 mmHg 34%
21:00 +23°C° 0 mm 2 mps 717 mmHg 34%
22:00 +22°C° 0 mm 3 mps 716 mmHg 33%
23:00 +22°C° 0 mm 3 mps 716 mmHg 33%

2 October, Friday

Time Temperature Precipitation Wind Pressure Humidity
00:00 +21°C° 0 mm 3 mps 716 mmHg 32%
01:00 +21°C° 0 mm 3 mps 715 mmHg 34%
02:00 +21°C° 0 mm 3 mps 715 mmHg 36%
03:00 +21°C° 0 mm 4 mps 714 mmHg 37%
04:00 +20°C° 0 mm 3 mps 714 mmHg 40%
05:00 +20°C° 0 mm 3 mps 714 mmHg 42%
06:00 +19°C° 0 mm 3 mps 713 mmHg 44%
07:00 +21°C° 0 mm 4 mps 714 mmHg 45%
08:00 +22°C° 0 mm 5 mps 714 mmHg 47%
09:00 +23°C° 0 mm 5 mps 714 mmHg 48%
10:00 +24°C° 0 mm 6 mps 714 mmHg 48%
11:00 +26°C° 0 mm 7 mps 713 mmHg 48%
12:00 +26°C° 0 mm 8 mps 713 mmHg 47%
13:00 +24°C° 0 mm 8 mps 713 mmHg 52%
14:00 +24°C° 0 mm 9 mps 712 mmHg 56%
15:00 +23°C° 0 mm 9 mps 712 mmHg 60%
16:00 +22°C° 0 mm 8 mps 712 mmHg 64%
17:00 +21°C° 0 mm 7 mps 712 mmHg 68%
18:00 +20°C° 0 mm 6 mps 712 mmHg 71%
19:00 +20°C° 0 mm 6 mps 712 mmHg 74%
20:00 +20°C° 0 mm 6 mps 712 mmHg 77%
21:00 +20°C° 0 mm 6 mps 712 mmHg 79%
22:00 +19°C° 0 mm 4 mps 712 mmHg 80%
23:00 +19°C° 0 mm 3 mps 712 mmHg 81%

3 October, Saturday

Time Temperature Precipitation Wind Pressure Humidity
00:00 +20°C° 0 mm 1 mps 712 mmHg 82%
01:00 +19°C° 0.1 mm 3 mps 712 mmHg 80%
02:00 +18°C° 0.1 mm 4 mps 712 mmHg 79%
03:00 +17°C° 0.1 mm 5 mps 712 mmHg 77%
04:00 +16°C° 0.3 mm 5 mps 712 mmHg 79%
05:00 +16°C° 0.3 mm 5 mps 712 mmHg 81%
06:00 +15°C° 0.3 mm 6 mps 713 mmHg 83%
07:00 +14°C° 0.4 mm 7 mps 713 mmHg 77%
08:00 +13°C° 0.4 mm 8 mps 714 mmHg 71%
09:00 +12°C° 0.4 mm 9 mps 714 mmHg 65%
10:00 +13°C° 0 mm 9 mps 715 mmHg 62%
11:00 +13°C° 0 mm 8 mps 715 mmHg 59%
12:00 +15°C° 0 mm 8 mps 715 mmHg 56%
13:00 +16°C° 0 mm 8 mps 715 mmHg 52%
14:00 +16°C° 0 mm 8 mps 715 mmHg 49%
15:00 +17°C° 0 mm 8 mps 715 mmHg 45%
16:00 +17°C° 0 mm 7 mps 715 mmHg 47%
17:00 +16°C° 0 mm 7 mps 716 mmHg 48%
18:00 +15°C° 0 mm 6 mps 716 mmHg 50%
19:00 +15°C° 0 mm 5 mps 716 mmHg 51%
20:00 +14°C° 0 mm 4 mps 716 mmHg 53%
21:00 +14°C° 0 mm 4 mps 716 mmHg 54%
22:00 +14°C° 0 mm 3 mps 716 mmHg 57%
23:00 +14°C° 0 mm 3 mps 716 mmHg 60%
Show more